Printer-friendly version

IAU Minor Planet Center

Minor Planet Center

MPEC 2000-C39: 2000 CF59

The following Minor Planet Electronic Circular may be linked-to from your own Web pages, but must not otherwise be redistributed electronically.


Read MPEC 2000-C38 Read MPEC 2000-C40


M.P.E.C. 2000-C39                                Issued 2000 Feb.  9, 23:23 UT

     The Minor Planet Electronic Circulars contain information on unusual
         minor planets and routine data on comets.  They are published
   on behalf of Commission 20 of the International Astronomical Union by the
          Minor Planet Center, Smithsonian Astrophysical Observatory,
                          Cambridge, MA 02138, U.S.A.

             Prepared using the Tamkin Foundation Computer Network

             BMARSDEN@CFA.HARVARD.EDU or GWILLIAMS@CFA.HARVARD.EDU
          URL http://cfa-www.harvard.edu/iau/mpc.html  ISSN 1523-6714

                                   2000 CF59

Observations:
     K00C59F* C2000 02 05.17759 08 17 30.00 -02 15 22.0          17.5 R      703
     K00C59F  C2000 02 05.18946 08 17 28.43 -02 14 37.3          17.2 R      703
     K00C59F  C2000 02 05.20124 08 17 26.91 -02 13 52.8          17.0 R      703
     K00C59F  C2000 02 05.21303 08 17 25.40 -02 13 08.5          17.3 R      703
     K00C59F  C2000 02 05.79944 08 16 12.83 -01 36 34.7          17.6 V      596
     K00C59F  C2000 02 05.80288 08 16 12.52 -01 36 22.5                      596
     K00C59F  C2000 02 05.80632 08 16 12.03 -01 36 10.8                      596
     K00C59F  C2000 02 05.80975 08 16 11.58 -01 35 58.6                      596
     K00C59F  C2000 02 05.84196 08 16 07.49 -01 33 59.1          16.6 R      046
     K00C59F  C2000 02 05.84306 08 16 07.36 -01 33 55.8                      046
     K00C59F  C2000 02 05.84462 08 16 07.20 -01 33 49.8                      046
     K00C59F  C2000 02 05.84539 08 16 07.07 -01 33 47.3          16.8 R      046
     K00C59F  C2000 02 05.84977 08 16 06.58 -01 33 29.9                      611
     K00C59F  C2000 02 05.85277 08 16 06.14 -01 33 18.9                      611
     K00C59F  C2000 02 05.85509 08 16 05.87 -01 33 11.0                      611
     K00C59F  C2000 02 05.85911 08 16 05.36 -01 32 55.6                      557
     K00C59F  C2000 02 05.86051 08 16 05.17 -01 32 50.6                      557
     K00C59F  C2000 02 05.86191 08 16 04.99 -01 32 45.6                      557
     K00C59F  C2000 02 06.22961 08 15 20.34 -01 10 02.2                      670
     K00C59F  C2000 02 06.25587 08 15 17.17 -01 08 26.5                      670
     K00C59F  C2000 02 06.26663 08 15 15.69 -01 07 46.5          17.3 R      858
     K00C59F  C2000 02 06.26929 08 15 15.35 -01 07 36.9          17.3 R      858
     K00C59F  C2000 02 06.27211 08 15 15.01 -01 07 26.2          17.3 R      858
     K00C59F  C2000 02 06.30729 08 15 10.31 -01 05 17.6          17.9 R      850
     K00C59F  C2000 02 06.31976 08 15 09.20 -01 04 31.4                      670
     K00C59F  C2000 02 06.32222 08 15 08.48 -01 04 23.8          18.2 R      850
     K00C59F  C2000 02 06.34899 08 15 05.54 -01 02 48.7          17.1 V      681
     K00C59F  C2000 02 06.35060 08 15 05.36 -01 02 40.4                      681
     K00C59F  C2000 02 06.35231 08 15 05.13 -01 02 34.6          17.0 V      681
     K00C59F  C2000 02 06.35811 08 15 04.40 -01 02 12.6          17.3 V      681
     K00C59F  C2000 02 06.35972 08 15 04.26 -01 02 05.9          17.0 V      681
     K00C59F  C2000 02 06.36134 08 15 04.08 -01 02 01.3          17.2 V      681
     K00C59F  C2000 02 06.43826 08 14 55.37 -00 56 59.7                      467
     K00C59F  C2000 02 06.43998 08 14 55.05 -00 56 54.6          16.6 R      467
     K00C59F  C2000 02 06.44211 08 14 54.87 -00 56 46.4          16.4 R      467
     K00C59F  C2000 02 06.44770 08 14 54.20 -00 56 24.8          16.3 R      467
     K00C59F  C2000 02 06.54266 08 14 42.73 -00 50 39.3          17.8        422
     K00C59F  C2000 02 06.54358 08 14 42.61 -00 50 35.7          18.0        422
     K00C59F  C2000 02 06.54426 08 14 42.53 -00 50 33.0          18.0        422
     K00C59F  C2000 02 06.82824 08 14 09.20 -00 33 34.5          17.4 V      596
     K00C59F  C2000 02 06.83168 08 14 08.84 -00 33 22.4                      596
     K00C59F  C2000 02 06.83475 08 14 08.51 -00 33 12.1                      118
     K00C59F  C2000 02 06.83510 08 14 08.47 -00 33 10.1                      596
     K00C59F  C2000 02 06.83883 08 14 08.00 -00 32 56.9                      118
     K00C59F  C2000 02 06.84183 08 14 07.64 -00 32 46.4          18.1 R      118
     K00C59F  C2000 02 07.00382 08 13 48.10 -00 22 59.8                      557
     K00C59F  C2000 02 07.00522 08 13 47.93 -00 22 55.0                      557
     K00C59F  C2000 02 07.00662 08 13 47.77 -00 22 49.5                      557
     K00C59F IC2000 02 07.00802 08 13 47.61 -00 22 44.5                      557
     K00C59F  C2000 02 07.24091 08 13 21.10 -00 08 42.9                      670
     K00C59F  C2000 02 07.24284 08 13 20.84 -00 08 36.0                      670
     K00C59F  C2000 02 07.32292 08 13 10.99 -00 03 48.1          17.5 V      651
     K00C59F  C2000 02 07.32450 08 13 10.88 -00 03 44.2                      651
     K00C59F  C2000 02 07.32619 08 13 10.78 -00 03 35.3                      651
     K00C59F  C2000 02 07.56578 08 12 43.52 +00 10 56.4          17.8        422
     K00C59F  C2000 02 07.56666 08 12 43.42 +00 10 59.4          17.8        422
     K00C59F  C2000 02 07.56749 08 12 43.31 +00 11 02.3          17.7        422
     K00C59F  C2000 02 07.78627 08 12 19.03 +00 23 42.4                      557
     K00C59F  C2000 02 07.78767 08 12 18.89 +00 23 47.2                      557
     K00C59F SC2000 02 07.78907 08 12 18.71 +00 23 52.8                      557
     K00C59F  C2000 02 09.89471 08 08 31.73 +02 25 05.4          17.2 R      118
     K00C59F  C2000 02 09.89706 08 08 31.40 +02 25 13.8                      118
     K00C59F  C2000 02 09.89808 08 08 31.27 +02 25 16.7                      118

Observer details:
046 Klet.  Observers J. Ticha, M. Tichy.  0.57-m f/5.2 reflector + CCD.
118 Modra.  Observers A. Galad, L. Kornos, J. Toth, D. Kalmancok.  0.6-m f/5.5
    reflector + CCD.
422 Loomberah.  Observer G. J. Garradd.  0.45-m f/5.4 reflector + CCD.
467 Auckland Observatory.  Observer I. P. Griffin.  0.5-m reflector + CCD.
557 Ondrejov.  Observers P. Pravec, L. Sarounova, P. Kusnirak.  0.65-m f/3.6
    reflector + CCD.
596 Colleverde di Guidonia.  Observer V. S. Casulli.  0.40-m f/2.95 reflector
    + CCD.
611 Starkenburg.  Observers M. Busch, R. Kresken, A.Seib, R. Stoss.  Measurer
    L. Kurtze.  0.45-m f/4.4 reflector + CCD.
651 Grasslands Observatory, Tucson.  Observer J. E. McGaha.  0.62-m f/5.1
    reflector + CCD.
670 Camarillo.  Observer J. E. Rogers.  0.30-m f/6.7 Helin Telescope + CCD.
681 Calgary.  Observer G. W. Billings.  0.36-m f/7 Schmidt-Cassegrain + CCD.
703 Catalina Sky Survey.  Observers R. E. Hill, C. W. Hergenrother.  0.41-m f/3
    Schmidt + CCD.
850 Cordell-Lorenz Observatory, Sewanee.  Observer D. T. Durig.  0.3-m f/5.75
    Schmidt-Cassegrain + CCD.
858 Tebbutt Observatory, Edgewood.  Observer F. B. Zoltowski.  0.3-m f/3.3
    Schmidt-Cassegrain + CCD.

Orbital elements:
2000 CF59
Epoch 2000 Feb. 6.0 TT = JDT 2451580.5                  Williams
M  49.65923              (2000.0)            P               Q
n   0.46570759     Peri.  221.77509     +0.89770054     -0.17978914
a   1.6483920      Node   142.11560     +0.11793193     +0.97769437
e   0.6336445      Incl.   40.92453     -0.42453010     -0.10857987
P   2.12           H   16.6           G   0.15
From 63 observations 2000 Feb. 5-9.

Ephemeris:
2000 CF59                a,e,i = 1.65, 0.63, 41                  q = 0.6039
Date    TT    R. A. (2000) Decl.     Delta      r     Elong.  Phase     V
2000 02 06    08 15.80   -01 24.1    0.617    1.573   157.2    14.0    17.3
2000 02 16    07 59.57   +07 38.2    0.725    1.660   151.1    16.7    17.9
2000 02 26    07 50.71   +14 13.2    0.864    1.742   139.8    21.5    18.5
2000 03 07    07 47.89   +18 48.9    1.026    1.820   128.7    25.2    19.1
2000 03 17    07 49.76   +21 58.2    1.204    1.894   118.6    27.5    19.6
2000 03 27    07 55.15   +24 07.0    1.391    1.963   109.5    28.6    20.0
2000 04 06    08 03.16   +25 32.6    1.584    2.029   101.1    28.9    20.4
2000 04 16    08 13.13   +26 26.8    1.779    2.092    93.3    28.6    20.7
2000 04 26    08 24.53   +26 57.3    1.973    2.151    86.0    27.8    21.0
2000 05 06    08 36.99   +27 09.5    2.163    2.206    79.0    26.7    21.2
2000 05 16    08 50.24   +27 07.2    2.349    2.258    72.4    25.3    21.4
2000 05 26    09 04.02   +26 53.0    2.526    2.307    65.9    23.6    21.5

Gareth V. Williams           (C) Copyright 2000 MPC           M.P.E.C. 2000-C39

Read MPEC 2000-C38 Read MPEC 2000-C40


Our Web policy. Index to the CBAT/MPC/ICQ pages.


Valid HTML 4.01!